Date,TemperatureHighF,TemperatureAvgF,TemperatureLowF,DewpointHighF,DewpointAvgF,DewpointLowF,HumidityHigh,HumidityAvg,HumidityLow,PressureMaxIn,PressureMinIn,WindSpeedMaxMPH,WindSpeedAvgMPH,GustSpeedMaxMPH,PrecipitationSumIn
2013-1-1,26.4,21.3,13.5,6.4,2.2,-4.0,45,43,42,28.79,28.64,12,3,12,0.00
2013-1-2,25.2,22.2,17.4,5.2,2.8,-1.0,44,43,42,28.79,28.70,15,3,15,0.00
2013-1-3,27.7,23.7,18.1,7.9,4.1,-0.6,43,42,41,28.76,28.67,15,5,15,0.00
2013-1-4,30.0,26.5,24.1,9.1,6.3,4.3,42,42,41,28.79,28.61,26,7,26,0.00
2013-1-5,33.1,27.0,19.2,13.0,7.1,0.7,45,42,41,28.88,28.61,11,3,11,0.00
2013-1-6,34.2,32.5,30.4,14.3,12.1,9.5,45,42,41,28.91,28.53,13,2,13,0.00
2013-1-7,34.9,30.0,26.4,13.0,9.0,6.2,42,41,40,28.97,28.76,17,4,17,0.00
2013-1-8,34.3,29.8,25.2,12.5,8.9,5.2,42,41,40,28.85,28.76,11,4,11,0.00
2013-1-9,42.1,35.9,29.8,18.9,14.0,9.0,42,40,39,29.09,28.64,30,7,30,0.00
2013-1-10,39.6,32.6,26.2,16.6,11.5,6.2,46,41,39,29.20,28.76,13,3,17,0.00
2013-1-11,47.7,41.1,34.0,45.1,35.7,15.5,98,83,44,28.76,28.41,15,4,15,0.00
2013-1-12,55.8,46.9,41.4,55.2,38.5,23.1,98,77,37,28.58,28.47,15,3,15,0.00
2013-1-13,41.4,36.1,28.2,31.2,25.0,8.4,77,64,42,28.70,28.41,20,3,20,0.00
2013-1-14,28.2,23.2,19.9,8.2,4.0,1.5,44,43,42,29.03,28.70,20,4,20,0.00
2013-1-15,29.8,23.8,17.1,9.0,4.3,-0.7,45,43,41,29.03,28.73,6,0,6,0.00
2013-1-16,34.2,27.9,20.7,12.4,7.8,2.2,44,42,40,28.73,28.41,21,5,21,0.00
2013-1-17,32.5,27.0,17.4,11.6,6.8,-1.0,44,42,41,28.94,28.61,18,4,18,0.00
2013-1-18,32.9,25.1,14.2,11.7,5.2,-3.8,44,42,41,29.03,28.56,19,5,19,0.00
2013-1-19,43.5,38.8,32.4,19.6,16.1,11.1,41,39,38,28.56,28.20,29,7,29,0.00
2013-1-20,39.4,20.1,15.1,16.4,1.2,-3.0,44,43,39,28.79,28.20,36,9,36,0.00
2013-1-21,17.1,12.3,3.4,-1.1,-5.5,-13.7,44,44,44,28.73,28.56,17,5,17,0.00
2013-1-22,9.5,4.7,-0.9,-8.1,-12.5,-17.7,44,44,44,28.88,28.70,17,4,17,0.00
2013-1-23,17.4,11.1,2.8,-0.8,-6.6,-14.2,45,44,44,28.88,28.67,12,3,12,0.00
2013-1-24,17.6,11.7,6.8,-0.6,-5.8,-10.1,45,44,44,29.18,28.73,11,2,11,0.00
2013-1-25,21.4,17.4,12.2,2.3,-1.1,-5.6,45,43,43,29.06,28.61,10,2,10,0.00
2013-1-26,25.9,20.7,14.2,5.7,1.6,-3.8,44,43,42,29.06,28.64,13,2,13,0.00
2013-1-27,29.7,21.5,11.7,11.4,2.6,-5.8,46,43,41,29.06,28.73,13,3,13,0.00
2013-1-28,42.3,35.3,29.7,40.4,29.4,11.4,95,80,46,28.73,28.50,23,3,23,0.00
2013-1-29,54.7,44.1,32.0,53.9,43.3,29.9,98,97,92,28.61,28.05,17,5,17,0.00
2013-1-30,56.5,46.1,29.1,55.9,44.9,8.8,98,96,42,28.05,27.79,25,5,30,0.00
2013-1-31,29.1,20.9,15.8,8.9,1.9,-2.3,44,43,42,28.50,27.93,34,9,34,0.00
2013-2-1,18.9,14.6,10.2,-0.1,-3.3,-6.9,45,44,43,28.85,28.50,18,7,18,0.00
2013-2-2,21.9,16.2,8.6,2.8,-1.9,-8.4,45,44,43,28.79,28.56,13,3,13,0.00
2013-2-3,20.5,13.8,5.5,1.5,-4.1,-11.3,45,44,43,28.61,28.47,19,3,19,0.00
2013-2-4,23.2,19.6,13.8,3.8,0.9,-3.8,45,43,42,28.61,28.50,6,0,8,0.00
2013-2-5,26.8,21.0,9.3,9.1,2.2,-7.8,47,44,42,28.61,28.41,13,3,13,0.00
2013-2-6,30.6,23.0,12.2,9.6,3.5,-5.1,45,42,41,28.88,28.61,11,2,11,0.00
2013-2-7,36.0,29.1,24.4,13.9,8.5,4.6,45,41,40,28.88,28.47,20,4,20,0.00
2013-2-8,28.8,24.3,16.2,11.5,5.5,-2.0,48,44,42,28.97,28.44,20,4,20,0.00
2013-2-9,31.3,19.7,4.5,10.3,0.8,-12.2,45,43,41,29.03,28.88,11,2,11,0.00
2013-2-10,36.9,29.6,20.3,20.7,9.9,2.2,52,43,40,28.88,28.32,17,5,17,0.00
2013-2-11,40.8,34.7,30.7,38.8,18.2,9.6,93,53,40,28.50,28.20,28,9,28,0.00
2013-2-12,30.6,28.9,26.8,9.6,8.2,6.2,42,41,41,28.67,28.50,23,6,23,0.00
2013-2-13,36.7,29.9,26.1,14.6,9.1,6.1,42,41,40,28.56,28.35,11,2,11,0.00
2013-2-14,37.4,32.7,27.9,16.5,12.6,7.7,47,43,41,28.50,28.32,28,5,28,0.00
2013-2-15,31.5,25.7,21.2,10.4,5.7,2.2,43,42,41,28.73,28.50,15,5,15,0.00
2013-2-16,25.0,20.1,16.9,5.1,1.2,-1.3,44,43,42,28.70,28.58,15,2,15,0.00
2013-2-17,22.6,15.9,10.0,3.3,-2.2,-7.1,45,44,43,28.79,28.67,15,2,15,0.00
2013-2-18,42.8,30.1,15.1,19.9,9.2,-3.0,44,41,38,28.79,28.20,17,6,17,0.00
2013-2-19,40.6,27.1,17.1,31.8,8.8,-1.1,74,46,42,28.56,28.02,26,9,26,0.00
2013-2-20,21.4,18.8,15.1,2.3,0.2,-3.0,44,43,43,28.85,28.56,26,7,26,0.00
2013-2-21,26.1,21.3,19.2,6.1,2.1,0.3,43,43,42,28.97,28.85,14,4,14,0.00
2013-2-22,32.2,26.6,21.4,18.1,8.5,2.3,56,46,42,28.85,28.50,19,5,19,0.00
2013-2-23,31.1,28.4,23.7,13.7,8.2,3.9,48,42,41,28.53,28.47,13,4,13,0.00
2013-2-24,33.1,26.7,20.3,11.9,6.7,1.3,43,42,41,28.76,28.53,15,3,15,0.00
2013-2-25,38.5,28.3,16.2,15.6,7.8,-2.0,44,41,39,28.85,28.73,10,1,10,0.00
2013-2-26,34.9,31.3,27.3,21.3,12.5,6.7,61,46,40,28.73,28.14,26,5,26,0.00
2013-2-27,34.2,33.4,33.1,24.7,22.4,20.5,68,64,59,28.20,28.08,9,0,9,0.00
2013-2-28,33.6,31.9,28.6,24.0,16.0,7.8,70,53,41,28.61,28.20,17,2,17,0.00
2013-3-1,28.6,25.6,23.9,8.4,5.6,4.1,42,42,42,28.73,28.61,0,0,0,0.00
2013-3-2,25.3,23.8,22.1,5.4,4.2,3.0,43,42,42,28.70,28.64,0,0,0,0.00
2013-3-3,26.2,22.0,16.5,6.2,2.7,-1.6,44,43,42,28.67,28.61,0,0,0,0.00
2013-3-4,31.6,22.7,12.9,10.6,3.3,-4.5,45,43,41,28.79,28.67,8,0,8,0.00
2013-3-5,35.1,26.9,17.6,13.1,6.6,-1.0,44,42,40,28.85,28.50,16,5,16,0.00
2013-3-6,36.7,31.6,25.5,14.4,10.7,5.6,43,41,40,29.56,28.70,13,3,13,0.00
2013-3-7,32.5,30.4,23.5,12.9,9.9,3.8,45,42,41,31.01,29.20,11,2,11,0.00
2013-3-8,41.9,30.6,19.2,18.7,9.6,0.7,44,41,39,31.01,29.91,9,1,9,0.00
2013-3-9,43.5,34.5,25.5,19.4,12.7,5.4,42,40,38,31.01,29.80,13,3,13,0.00
2013-3-10,53.8,46.1,36.5,27.3,21.7,14.4,40,38,36,31.01,29.71,15,5,15,0.00
2013-3-11,50.9,45.5,35.1,43.7,30.5,15.1,87,59,37,31.01,31.01,20,6,20,0.00
2013-3-12,35.1,32.8,30.0,15.3,12.0,9.5,44,42,40,31.01,31.01,17,6,17,0.00
2013-3-13,31.3,27.6,23.7,10.7,7.3,3.9,43,42,41,31.01,31.01,20,6,20,0.00
2013-3-14,38.7,29.7,21.4,15.8,8.9,2.3,43,41,39,31.01,31.01,13,4,13,0.00
2013-3-15,35.8,33.3,30.7,14.5,12.4,9.6,44,41,40,31.01,31.01,20,4,20,0.00
2013-3-16,32.5,28.7,25.3,12.8,8.4,5.4,44,42,41,31.01,31.01,0,0,0,0.00
2013-3-17,32.4,26.3,20.5,11.2,6.2,1.3,43,42,41,31.01,31.01,0,0,0,0.00
2013-3-18,33.6,28.8,20.5,16.9,9.4,1.5,50,44,41,31.01,31.01,22,3,22,0.00
2013-3-19,33.1,25.2,22.6,13.0,5.3,3.4,43,42,41,31.01,31.01,0,0,0,0.00
2013-3-20,27.7,22.7,16.2,7.0,3.3,-2.0,44,43,41,31.01,31.01,23,4,23,0.00
2013-3-21,29.7,23.8,15.8,8.8,4.1,-2.3,44,42,41,31.01,31.01,17,6,17,0.00
2013-3-22,36.9,29.2,24.3,14.8,8.5,4.4,42,41,40,31.01,31.01,15,4,15,0.00
2013-3-23,34.9,29.9,25.7,13.0,9.1,5.7,42,41,40,31.01,31.01,9,1,9,0.00
2013-3-24,36.3,29.6,24.1,14.3,8.9,4.3,42,41,40,31.01,31.01,20,4,20,0.00
2013-3-25,37.4,33.1,30.2,15.1,11.7,9.3,41,41,39,31.01,20.46,20,6,20,0.00
2013-3-26,40.8,34.8,31.6,17.6,13.0,10.6,41,40,39,31.01,20.29,13,3,13,0.00
2013-3-27,44.2,36.3,29.5,20.0,14.1,8.6,41,40,38,31.01,17.72,20,6,20,0.00
2013-3-28,50.4,38.3,30.4,25.0,15.7,9.5,41,39,37,31.01,17.72,15,3,15,0.00
2013-3-29,51.6,38.7,29.8,26.2,16.0,9.0,41,39,37,31.01,17.72,10,2,10,0.00
2013-3-30,55.8,41.7,27.9,28.7,18.2,7.2,41,39,35,31.01,17.72,12,2,13,0.00
2013-3-31,55.4,44.1,37.4,28.7,20.2,14.7,39,38,35,31.01,17.72,20,5,20,0.00
2013-4-1,37.0,30.8,25.9,14.9,9.7,5.9,42,41,40,17.72,17.72,20,6,20,0.00
2013-4-2,39.2,30.7,23.5,16.1,9.6,3.8,42,41,39,17.72,17.72,21,5,21,0.00
2013-4-3,42.3,32.4,23.4,19.0,11.0,3.6,42,41,39,17.72,17.72,15,3,15,0.00
2013-4-4,55.9,41.1,27.5,28.7,17.6,6.8,41,39,35,17.72,17.72,15,4,15,0.00
2013-4-5,48.6,39.8,31.3,23.3,16.8,10.3,41,39,37,17.72,17.72,13,3,13,0.00
2013-4-6,49.5,39.4,29.8,24.2,16.5,9.0,41,39,37,17.72,17.72,17,6,17,0.00
2013-4-7,53.8,45.4,33.1,27.4,21.1,11.7,41,38,36,17.72,17.72,28,6,28,0.00
2013-4-8,58.5,43.3,31.1,49.2,21.8,10.1,77,43,35,17.72,17.72,28,5,28,0.00
2013-4-9,50.2,43.8,39.7,33.1,25.2,20.1,68,48,37,17.72,17.72,12,3,12,0.00
2013-4-10,41.4,40.0,38.5,35.2,31.3,29.5,79,71,66,17.72,17.72,17,4,17,0.00
2013-4-14,45.9,41.4,37.4,21.7,18.2,15.2,40,39,38,28.76,28.56,15,4,15,0.00
2013-4-15,64.6,53.3,38.8,35.2,27.1,16.3,40,36,33,28.61,28.53,17,5,17,0.00
2013-4-16,58.3,50.9,44.2,31.3,25.8,20.2,42,38,35,28.88,28.53,15,4,15,0.00
2013-4-17,60.8,47.1,37.8,32.8,23.0,15.0,49,39,35,29.00,28.61,22,5,22,0.00
2013-4-18,71.8,57.0,44.1,48.4,37.8,23.8,72,50,32,28.61,28.20,25,5,25,0.00
2013-4-19,57.7,42.8,33.3,52.9,24.3,12.6,84,49,39,28.41,28.02,28,8,28,0.00
2013-4-20,37.0,32.7,28.2,14.9,11.3,7.3,42,41,40,29.09,28.41,22,6,22,0.00
2013-4-21,50.9,38.3,25.9,25.5,15.6,5.9,42,39,37,29.24,29.09,14,3,14,0.00
2013-4-22,62.8,48.0,33.4,34.0,23.0,12.0,41,37,34,29.09,28.82,14,3,14,0.00
2013-4-23,67.1,54.5,43.5,37.0,29.1,19.6,52,38,33,28.82,28.47,17,4,17,0.00
2013-4-24,48.9,38.5,34.9,31.1,19.8,13.0,58,47,39,28.76,28.44,15,4,15,0.00
2013-4-25,46.9,39.3,33.8,22.1,16.9,12.5,44,40,37,29.00,28.73,22,4,22,0.00
2013-4-26,58.3,45.8,32.5,30.6,21.5,11.4,42,38,35,29.09,28.97,13,3,13,0.00
2013-4-27,69.6,54.5,38.5,39.2,27.9,16.2,40,36,33,29.00,28.76,13,3,13,0.00
2013-4-28,58.8,52.6,48.2,38.5,30.2,23.1,58,43,35,28.76,28.50,11,2,11,0.00
2013-4-29,65.5,57.6,52.3,48.5,37.5,30.4,80,50,33,28.61,28.50,8,2,8,0.00
2013-4-30,68.0,59.7,54.0,37.8,32.8,29.2,44,36,33,28.73,28.61,17,5,17,0.00
2013-5-1,80.1,66.4,53.6,45.8,36.6,27.9,38,33,30,28.91,28.73,10,3,13,0.00
2013-5-2,79.2,66.5,55.6,45.4,36.5,28.3,35,33,30,28.91,28.79,14,4,14,0.00
2013-5-3,77.4,65.7,56.1,44.4,35.9,28.8,35,33,31,28.79,28.73,17,4,17,0.00
2013-5-4,71.6,62.5,55.0,40.2,33.7,28.2,36,34,32,28.79,28.73,17,4,17,0.00
2013-5-5,72.9,61.6,51.6,41.1,33.0,25.7,37,34,32,28.76,28.70,17,4,17,0.00
2013-5-6,76.8,60.8,45.9,43.9,32.4,21.5,38,34,31,28.73,28.64,17,2,17,0.00
2013-5-7,77.4,63.5,48.9,44.4,34.3,23.8,37,34,31,28.73,28.67,15,2,15,0.00
2013-5-8,79.2,64.8,52.5,45.1,35.3,26.3,36,34,30,28.70,28.61,9,2,9,0.00
2013-5-9,77.0,65.5,53.1,44.0,35.8,26.8,36,33,31,28.64,28.56,9,1,9,0.00
2013-5-10,62.6,52.8,42.4,41.7,28.6,20.1,49,39,34,28.58,28.44,13,3,13,0.00
2013-5-11,60.1,47.0,38.8,32.3,23.5,16.3,44,40,35,28.56,28.38,18,4,18,0.00
2013-5-12,46.6,39.8,34.9,22.0,16.9,13.0,40,39,37,28.73,28.50,25,6,25,0.00
2013-5-13,52.9,42.6,32.2,26.6,19.0,11.1,41,39,36,28.82,28.73,14,3,14,0.00
2013-5-14,72.0,55.1,41.9,40.5,28.2,18.7,39,36,32,28.73,28.41,14,2,14,0.00
2013-5-15,77.2,67.1,53.8,44.2,37.0,27.4,36,33,31,28.47,28.26,22,5,22,0.00
2013-5-16,77.0,63.6,50.5,44.0,34.4,25.0,37,34,31,28.70,28.47,11,2,11,0.00
2013-5-17,72.1,59.6,47.8,40.6,31.6,22.8,37,35,32,28.82,28.70,11,3,11,0.00
2013-5-18,79.3,65.0,54.7,45.4,35.4,28.2,36,33,30,28.82,28.70,15,3,15,0.00
2013-5-19,83.8,70.1,54.5,48.0,38.9,28.1,36,32,29,28.70,28.56,8,1,8,0.00
2013-5-20,87.1,73.4,62.6,51.0,41.5,33.8,36,32,29,28.61,28.44,22,2,22,0.00
2013-5-21,81.0,73.1,66.2,46.6,41.3,36.2,34,32,30,28.50,28.41,17,3,17,0.00
2013-5-22,76.5,67.6,61.9,43.6,38.1,34.9,37,34,31,28.44,28.32,16,2,16,0.00
2013-5-23,61.7,52.0,44.1,35.1,27.6,21.3,41,39,37,28.82,28.38,17,3,17,0.00
2013-5-24,54.3,45.9,39.2,27.7,21.6,16.3,40,38,36,29.00,28.82,13,3,13,0.00
2013-5-25,63.0,50.6,37.4,34.1,25.0,15.2,40,37,34,29.06,28.94,11,1,11,0.00
2013-5-26,66.0,53.8,39.0,36.1,27.3,16.1,39,36,33,29.00,28.88,10,1,10,0.00
2013-5-27,63.9,52.6,42.4,34.9,26.9,18.0,41,37,34,28.94,28.67,11,2,11,0.00
2013-5-28,68.7,60.3,52.0,62.7,48.5,29.0,85,66,41,28.67,28.50,10,1,10,0.00
2013-5-29,75.6,68.3,61.9,64.0,48.4,40.0,86,53,31,28.67,28.44,17,3,17,0.00
2013-5-30,81.5,70.2,63.0,52.3,44.4,40.9,52,40,30,28.73,28.64,20,2,20,0.00
2013-5-31,76.5,70.1,66.4,55.3,45.6,39.3,65,43,31,28.67,28.53,14,2,14,0.00
2013-6-1,73.9,67.9,64.0,58.2,43.2,36.8,73,42,32,28.53,28.38,15,2,15,0.00
2013-6-2,66.6,61.3,50.7,39.9,33.7,25.4,39,35,33,28.67,28.35,17,5,17,0.00
2013-6-3,65.1,54.9,43.7,35.3,28.2,19.7,39,36,33,28.76,28.67,11,2,11,0.00
2013-6-4,69.3,58.7,47.5,38.9,31.1,23.1,38,35,33,28.85,28.76,8,1,8,0.00
2013-6-5,71.1,60.2,49.5,39.5,32.1,24.2,37,35,32,28.85,28.67,12,2,12,0.00
2013-6-6,65.7,58.8,53.6,35.8,31.0,27.3,36,35,33,28.67,28.56,14,3,14,0.00
2013-6-7,60.1,55.8,51.4,32.3,29.4,26.0,38,36,35,28.58,28.56,11,1,11,0.00
2013-6-8,68.0,61.1,55.9,37.8,32.9,29.3,37,35,33,28.76,28.58,6,0,6,0.00
2013-6-9,74.3,65.0,54.5,41.7,35.7,28.1,37,34,31,28.79,28.64,14,3,14,0.00
2013-6-10,68.5,64.0,59.5,58.0,48.9,32.2,70,59,33,28.64,28.44,11,1,11,0.00
2013-6-11,75.4,67.6,62.2,60.9,47.0,38.0,84,52,31,28.58,28.47,12,2,12,0.00
2013-6-12,71.4,66.6,60.8,44.1,39.9,35.5,46,38,33,28.61,28.35,9,1,9,0.00
2013-6-13,72.0,66.1,60.6,55.0,42.4,33.8,73,44,32,28.61,28.29,14,3,14,0.00
2013-6-14,72.5,64.0,57.0,41.0,35.1,29.9,37,34,32,28.76,28.61,11,2,11,0.00
2013-6-15,73.0,65.1,56.8,41.4,36.0,29.8,37,34,32,28.76,28.56,13,2,13,0.00
2013-6-16,75.7,67.7,62.1,51.6,40.2,33.8,62,37,31,28.58,28.44,16,4,16,0.00
2013-6-17,79.9,68.3,59.0,45.7,38.0,31.5,36,33,30,28.64,28.53,11,2,11,0.00
2013-6-18,69.8,61.9,52.0,39.2,33.6,25.8,37,35,33,28.76,28.58,13,3,13,0.00
2013-6-19,73.2,61.8,47.7,41.6,33.2,23.1,38,34,32,28.85,28.76,10,1,10,0.00
2013-6-20,78.3,67.0,55.2,45.0,37.0,28.7,36,33,31,28.88,28.82,9,1,9,0.00
2013-6-21,82.4,70.1,58.3,47.7,39.1,30.7,35,32,29,28.88,28.73,10,1,10,0.00
2013-6-22,86.4,74.8,67.3,50.3,42.5,37.2,33,31,29,28.76,28.67,13,2,13,0.00
2013-6-23,87.1,77.4,68.9,51.0,44.4,39.4,34,31,29,28.73,28.64,14,2,14,0.00
2013-6-24,85.3,75.3,67.8,49.4,42.9,37.8,35,31,29,28.73,28.61,22,3,22,0.00
2013-6-25,74.7,69.6,66.2,56.5,35.1,-20.3,63,37,2,28.64,28.53,15,2,15,0.00
2013-6-26,79.3,71.8,64.6,54.0,20.7,-20.3,61,25,2,28.56,28.44,9,1,9,0.00
2013-6-27,82.4,70.9,65.5,53.7,26.7,-20.3,65,31,2,28.47,28.32,14,1,14,0.00
2013-6-28,72.3,66.4,64.0,60.3,47.7,-14.7,75,56,3,28.35,28.23,14,1,14,0.00
2013-6-29,71.1,66.0,63.0,59.4,23.7,-14.7,75,39,3,28.44,28.23,11,2,11,0.00
2013-6-30,75.4,67.1,59.4,43.1,15.6,-14.7,35,19,3,28.64,28.44,14,2,14,0.00
2013-7-1,66.0,61.3,56.8,36.8,33.2,29.8,36,35,34,28.76,28.64,11,2,11,0.00
2013-7-2,70.9,64.1,57.7,39.4,28.3,-14.7,38,30,3,28.76,28.70,9,1,9,0.00
2013-7-3,79.9,70.0,59.9,45.7,31.8,-20.3,37,29,2,28.76,28.73,9,1,10,0.00
2013-7-4,77.5,71.3,66.2,44.5,37.4,-14.3,35,31,3,28.82,28.76,11,1,11,0.00
2013-7-5,81.0,72.9,66.4,46.6,39.4,-14.2,34,31,3,28.79,28.70,6,0,7,0.00
2013-7-6,83.3,74.2,67.1,48.5,40.6,-13.9,34,31,3,28.79,28.67,8,1,8,0.00
2013-7-7,78.4,72.7,69.6,45.3,29.0,-20.3,37,25,2,28.70,28.64,10,1,10,0.00
2013-7-8,79.9,72.4,68.9,47.4,35.6,-20.3,44,31,2,28.70,28.64,10,1,15,0.00
2013-7-9,82.8,73.5,68.5,59.2,43.1,-19.9,62,39,2,28.67,28.53,17,1,17,0.00
2013-7-10,79.3,72.7,63.7,65.3,55.4,34.8,75,58,30,28.64,28.47,17,3,17,0.00
2013-7-11,75.0,67.0,58.8,42.2,37.0,31.5,36,33,31,28.76,28.64,10,2,10,0.00
2013-7-12,79.0,67.8,57.2,45.4,37.6,23.8,36,33,24,28.85,28.76,10,1,10,0.00
2013-7-13,82.6,71.7,59.9,47.7,37.6,-14.7,35,31,3,28.91,28.82,11,2,11,0.00
2013-7-14,87.1,76.5,64.8,50.8,39.7,-20.3,34,29,2,28.94,28.88,10,1,10,0.00
2013-7-15,89.2,76.7,69.6,51.9,12.8,-20.3,40,16,2,28.97,28.91,8,0,8,0.00
2013-7-16,86.5,78.9,72.9,70.2,27.5,-19.2,73,32,2,29.00,28.91,11,1,11,0.00
2013-7-17,88.9,80.6,72.9,52.5,31.2,-20.3,40,23,2,28.97,28.85,10,2,10,0.00
2013-7-18,89.4,81.0,73.0,52.8,43.2,-16.9,34,29,2,28.85,28.64,14,2,14,0.00
2013-7-19,89.1,79.8,71.2,51.7,41.8,-19.9,40,29,2,28.64,28.41,32,4,32,0.00
2013-7-20,80.6,73.7,67.8,64.1,46.9,-19.2,70,43,2,28.61,28.44,10,2,10,0.00
2013-7-21,78.8,70.7,62.4,45.4,39.8,32.5,35,33,29,28.70,28.61,8,1,8,0.00
2013-7-22,79.3,72.0,66.7,45.4,41.0,37.2,35,33,30,28.64,28.47,8,1,8,0.00
2013-7-23,77.5,68.7,60.1,52.3,27.0,-20.3,44,28,2,28.58,28.38,13,2,13,0.00
2013-7-24,70.3,62.7,55.2,39.2,34.0,28.7,36,34,32,28.73,28.58,11,2,11,0.00
2013-7-25,74.8,64.2,52.3,42.2,35.0,26.5,37,34,31,28.79,28.73,8,1,8,0.00
2013-7-26,77.4,67.7,59.4,44.4,37.6,31.7,35,33,31,28.76,28.58,9,1,9,0.00
2013-7-27,75.0,65.5,56.1,42.2,36.7,29.5,36,34,28,28.58,28.44,11,1,14,0.00
2013-7-28,62.6,57.5,53.2,33.6,27.4,-8.7,37,33,6,28.64,28.50,13,1,13,0.00
2013-7-29,65.5,60.1,56.7,35.6,29.1,-10.8,37,33,5,28.85,28.64,13,2,13,0.00
2013-7-30,74.7,64.7,53.8,41.9,34.6,-14.1,37,33,3,28.91,28.79,6,0,6,0.00
2013-7-31,69.3,65.9,62.6,46.7,38.8,33.8,51,37,34,28.79,28.56,10,0,10,0.00
2013-8-1,71.6,65.8,59.4,53.0,29.0,-14.7,62,35,3,28.61,28.56,10,2,12,0.00
2013-8-2,59.4,57.7,57.4,30.4,30.1,28.4,35,35,31,28.61,28.53,15,2,15,0.00
2013-8-3,57.6,57.6,57.6,30.1,30.1,30.1,35,35,35,28.73,28.61,13,2,13,0.00
2013-8-4,57.6,57.6,57.6,30.1,30.1,30.1,35,35,35,28.82,28.73,10,2,10,0.00
2013-8-5,57.6,57.6,57.6,30.1,30.1,30.1,35,35,35,28.79,28.64,8,1,9,0.00
2013-8-6,57.6,57.6,57.6,30.1,30.1,30.1,35,35,35,28.64,28.56,10,1,10,0.00
2013-8-7,57.6,57.6,57.6,30.1,30.1,30.1,35,35,35,28.61,28.50,20,2,20,0.00
2013-8-8,57.6,57.6,57.6,30.1,30.1,30.1,35,35,35,28.70,28.61,8,2,8,0.00
2013-8-9,57.6,57.6,57.6,30.1,30.1,30.1,35,35,35,28.70,28.61,11,1,11,0.00
2013-8-10,57.6,57.6,57.6,30.1,30.1,30.1,35,35,35,28.82,28.70,9,1,9,0.00
2013-8-11,57.6,18.6,0.0,30.1,30.1,30.1,35,11,35,28.79,28.70,10,1,10,0.00
2013-8-12,0.0,0.0,0.0,30.1,30.1,30.1,0,0,100,28.73,28.53,11,1,11,0.00
2013-8-13,0.0,0.0,0.0,30.1,30.1,30.1,0,0,100,28.73,28.53,14,3,14,0.00
2013-8-14,68.2,23.3,0.0,38.0,31.3,28.4,36,13,33,28.82,28.73,10,2,10,0.00
2013-8-15,71.2,61.1,51.3,39.9,32.9,25.8,37,35,32,28.85,28.76,9,1,9,0.00
2013-8-16,75.7,64.8,54.5,42.9,35.4,28.1,36,34,31,28.88,28.79,9,1,9,0.00
2013-8-17,78.1,66.0,54.7,45.0,36.3,28.2,36,33,31,28.94,28.85,8,1,8,0.00
2013-8-18,80.1,67.5,56.3,45.8,37.4,29.7,36,33,30,28.91,28.79,6,0,6,0.00
2013-8-19,77.9,68.0,58.5,44.7,37.7,30.9,35,33,31,28.79,28.70,11,1,11,0.00
2013-8-20,81.9,70.6,60.1,47.4,39.6,32.3,35,33,30,28.82,28.73,10,1,10,0.00
2013-8-21,85.1,73.8,64.8,49.3,41.8,35.7,34,32,29,28.82,28.67,10,1,10,0.00
2013-8-22,79.3,73.5,68.0,45.4,41.7,37.6,33,32,30,28.76,28.61,13,2,13,0.00
2013-8-23,78.8,68.4,59.7,45.4,38.0,32.0,35,33,30,28.88,28.76,10,1,10,0.00
2013-8-24,81.0,68.6,57.4,46.3,38.0,29.9,35,33,30,28.97,28.88,8,0,8,0.00
2013-8-25,84.2,72.0,60.4,48.3,40.4,32.2,35,32,29,28.97,28.82,13,2,13,0.00
2013-8-26,83.3,74.9,68.2,47.7,42.5,38.0,33,31,29,28.82,28.67,15,3,15,0.00
2013-8-27,79.0,73.9,70.0,56.2,26.7,-19.8,55,25,2,28.70,28.47,17,1,17,0.00
2013-8-28,78.4,74.0,68.7,60.9,26.8,-20.3,60,33,2,28.70,28.50,13,1,17,0.00
2013-8-29,82.0,73.7,66.6,49.9,23.6,-19.3,46,23,2,28.76,28.67,7,0,7,0.00
2013-8-30,82.9,74.7,67.1,48.2,20.8,-20.3,33,19,2,28.70,28.44,14,2,14,0.00
2013-8-31,76.1,71.7,67.3,43.1,27.1,-20.3,33,25,2,28.56,28.44,8,1,8,0.00
2013-9-1,76.3,70.3,66.0,37.5,-3.4,-20.3,33,9,2,28.56,28.41,13,0,13,0.00
2013-9-2,70.2,65.7,58.3,39.2,13.5,-12.7,36,19,4,28.58,28.41,15,4,15,0.00
2013-9-3,71.1,62.7,57.6,39.7,33.9,30.1,35,34,32,28.70,28.58,16,3,16,0.00
2013-9-4,76.6,66.7,56.7,43.7,36.7,29.8,36,33,28,28.76,28.67,15,4,15,0.00
2013-9-5,68.5,61.1,52.3,38.3,32.8,26.1,36,34,33,28.94,28.76,11,2,11,0.00
2013-9-6,73.0,61.1,49.8,41.4,32.8,24.6,37,35,32,28.94,28.73,8,0,8,0.00
2013-9-7,75.7,66.7,58.1,43.1,28.7,-20.3,35,28,4,28.73,28.58,12,2,12,0.00
2013-9-8,72.0,66.0,55.0,40.5,17.9,-12.2,36,22,4,28.76,28.61,13,2,13,0.00
2013-9-9,73.2,64.4,54.7,37.9,14.1,-14.7,36,22,3,28.76,28.56,8,1,8,0.00
2013-9-10,88.0,77.5,69.3,51.4,21.0,-20.3,32,19,2,28.70,28.56,17,3,17,0.00
2013-9-11,87.3,75.6,68.7,51.1,43.0,37.7,33,31,29,28.70,28.61,12,2,12,0.00
2013-9-12,75.2,66.1,54.9,42.3,29.0,-11.3,36,28,4,28.64,28.53,24,3,24,0.00
2013-9-13,57.2,52.6,44.1,30.1,26.4,20.0,38,36,35,28.79,28.64,13,3,13,0.00
2013-9-14,66.2,53.4,42.1,36.2,27.1,18.9,39,36,33,28.85,28.76,9,1,9,0.00
2013-9-15,60.3,55.0,49.6,32.5,28.5,24.4,37,36,35,28.79,28.73,6,0,6,0.00
2013-9-16,60.3,54.5,44.2,32.3,23.3,-11.0,38,32,6,29.03,28.79,10,2,10,0.00
2013-9-17,66.6,52.1,39.6,36.5,26.1,16.6,39,36,33,29.06,28.88,10,1,10,0.00
2013-9-18,75.6,60.3,47.3,42.6,32.1,22.9,38,35,31,28.88,28.70,10,1,10,0.00
2013-9-19,77.7,68.0,58.8,44.7,37.8,31.4,36,33,28,28.70,28.56,9,1,9,0.00
2013-9-20,76.3,69.8,66.4,42.3,3.1,-20.3,33,12,2,28.58,28.41,14,2,14,0.00
2013-9-21,66.4,60.4,52.7,35.4,10.2,-12.7,36,20,4,28.56,28.35,13,4,13,0.00
2013-9-22,56.7,51.2,44.6,29.3,25.5,20.5,38,37,35,28.76,28.56,11,2,11,0.00
2013-9-23,58.8,49.1,39.6,31.2,23.9,16.6,39,37,35,28.85,28.76,10,1,10,0.00
2013-9-24,68.4,53.4,41.0,38.1,27.1,17.9,39,36,33,28.82,28.67,9,1,9,0.00
2013-9-25,70.9,56.0,44.4,39.5,29.1,20.4,38,36,32,28.67,28.64,11,1,11,0.00
2013-9-26,73.9,57.6,45.9,41.6,30.2,21.7,38,35,31,28.82,28.67,8,1,8,0.00
2013-9-27,76.3,60.6,48.4,43.4,32.2,23.3,37,34,31,28.91,28.82,10,1,10,0.00
2013-9-28,77.7,64.5,51.4,44.5,35.2,25.7,37,34,28,28.88,28.67,11,2,11,0.00
2013-9-29,62.2,60.1,0.0,34.2,31.1,20.0,35,33,22,28.67,28.61,10,1,10,0.00
2013-9-30,66.6,59.8,53.2,36.8,15.2,-12.7,37,22,4,28.70,28.58,10,1,10,0.00
2013-10-1,71.1,61.6,51.6,39.7,29.0,-12.7,37,32,4,28.67,28.58,14,2,14,0.00
2013-10-2,72.9,63.6,52.9,41.3,32.9,-9.7,36,32,5,28.76,28.61,10,2,10,0.00
2013-10-3,78.1,65.6,52.0,45.0,36.0,25.8,36,34,31,28.73,28.58,10,2,10,0.00
2013-10-4,74.8,68.5,64.2,42.0,27.9,-14.7,34,26,3,28.70,28.61,11,1,11,0.00
2013-10-5,70.2,67.1,64.4,37.2,-8.6,-14.7,33,5,3,28.73,28.53,9,1,9,0.00
2013-10-6,68.0,64.0,55.0,44.3,10.2,-12.6,44,19,4,28.53,28.32,17,2,17,0.00
2013-10-7,55.8,50.8,46.0,26.1,-6.5,-11.9,33,10,6,28.79,28.35,17,4,17,0.00
2013-10-8,65.8,53.0,43.5,35.8,12.1,-11.9,38,23,5,28.94,28.79,9,1,9,0.00
2013-10-9,69.3,54.9,44.8,38.9,28.3,20.7,38,36,33,29.00,28.88,10,1,10,0.00
2013-10-10,70.0,55.3,45.1,39.2,28.6,21.0,38,36,32,28.91,28.79,6,1,8,0.00
2013-10-11,70.3,55.3,42.4,39.1,28.5,18.9,39,36,32,28.82,28.73,8,1,8,0.00
2013-10-12,74.8,63.0,53.1,42.2,33.7,-11.3,37,34,4,28.79,28.70,11,2,11,0.00
2013-10-13,64.8,57.6,47.3,35.2,30.2,22.3,37,35,33,29.03,28.76,14,2,14,0.00
2013-10-14,61.5,51.6,44.2,32.9,25.8,20.2,38,37,34,29.06,28.91,11,1,11,0.00
2013-10-15,63.7,54.2,41.5,34.8,21.4,-7.6,39,31,6,28.91,28.50,11,2,11,0.00
2013-10-16,60.4,54.5,51.3,29.8,12.0,-11.0,37,24,6,28.56,28.47,17,4,17,0.00
2013-10-17,52.9,50.2,45.3,25.8,7.3,-11.9,37,21,7,28.56,28.41,15,2,15,0.00
2013-10-18,57.9,49.6,43.5,30.4,8.7,-11.9,38,23,6,28.56,28.50,15,3,15,0.00
2013-10-19,47.8,44.6,41.4,22.5,20.4,15.9,39,38,30,28.56,28.41,16,3,16,0.00
2013-10-20,52.0,46.5,39.4,26.2,20.6,-10.8,39,36,8,28.56,28.50,13,2,13,0.00
2013-10-21,53.8,48.2,41.0,27.4,23.3,17.9,39,37,36,28.53,28.47,15,4,15,0.00
2013-10-22,46.6,40.6,34.5,22.0,17.5,12.6,40,39,37,28.56,28.53,17,4,17,0.00
2013-10-23,46.4,39.0,34.2,22.0,16.2,12.3,41,39,38,28.58,28.47,15,3,15,0.00
2013-10-24,45.9,37.7,32.5,21.7,15.3,11.4,41,40,38,28.82,28.58,17,4,17,0.00
2013-10-25,46.4,38.0,32.7,22.1,15.5,11.6,41,40,38,28.97,28.70,13,4,13,0.00
2013-10-26,48.7,41.9,35.4,23.6,18.5,13.6,41,39,37,28.70,28.41,20,5,20,0.00
2013-10-27,48.6,39.7,33.3,23.4,16.9,12.1,41,39,37,28.70,28.61,13,2,13,0.00
2013-10-28,48.4,40.5,35.4,23.3,17.4,13.3,40,39,37,29.06,28.70,13,3,13,0.00
2013-10-29,47.3,41.2,37.9,22.3,17.9,15.0,40,39,37,29.09,28.88,8,2,8,0.00
2013-10-30,62.2,48.4,35.4,33.5,23.4,13.5,40,37,34,28.88,28.58,10,1,10,0.00
2013-10-31,59.5,57.9,52.2,47.6,39.4,-9.0,65,52,6,28.58,27.82,17,4,17,0.00
2013-11-1,59.2,47.5,44.8,47.2,2.5,-11.9,65,20,8,28.32,27.82,29,7,29,0.00
2013-11-2,45.7,42.3,36.0,-10.1,-11.6,-14.4,11,10,9,28.76,28.32,13,2,13,0.00
2013-11-3,41.5,36.4,32.5,17.7,-0.7,-15.3,40,24,10,29.09,28.76,10,1,10,0.00
2013-11-4,46.4,39.5,33.1,22.0,16.4,9.5,40,39,35,29.12,28.94,15,4,15,0.00
2013-11-5,53.4,48.3,40.5,27.1,23.3,17.4,39,37,34,29.00,28.79,11,3,11,0.00
2013-11-6,53.4,49.7,41.4,32.8,8.1,-12.3,46,23,7,28.79,28.44,20,6,20,0.00
2013-11-7,41.4,37.7,34.0,17.6,4.2,-14.7,40,28,10,28.79,28.64,18,5,18,0.00
2013-11-8,42.1,35.3,31.6,18.9,13.5,10.6,41,40,39,28.91,28.76,14,3,14,0.00
2013-11-9,51.8,44.8,35.2,26.2,20.7,13.3,40,38,36,28.79,28.44,26,6,26,0.00
2013-11-10,46.0,40.6,34.9,21.8,17.4,13.0,40,39,38,28.91,28.56,25,5,25,0.00
2013-11-11,40.6,35.2,27.3,18.0,13.4,7.2,42,40,39,28.97,28.67,15,4,15,0.00
2013-11-12,32.5,27.2,23.4,11.4,6.8,3.6,42,42,41,29.15,28.97,17,4,17,0.00
2013-11-13,37.9,29.7,21.2,15.1,8.9,2.2,43,41,39,29.15,28.76,21,5,21,0.00
2013-11-14,49.6,38.8,30.4,24.4,16.0,9.5,41,39,37,28.79,28.61,15,6,15,0.00
2013-11-15,50.0,41.4,35.2,24.7,18.1,13.3,40,39,37,28.70,28.61,12,4,12,0.00
2013-11-16,54.7,46.2,37.0,26.2,14.4,-10.4,40,32,7,28.73,28.44,17,5,17,0.00
2013-11-17,59.5,54.7,43.9,28.2,-9.4,-11.8,31,7,6,28.44,27.91,35,8,35,0.00
2013-11-18,43.7,37.5,33.4,19.4,14.8,-11.7,41,39,9,28.79,28.17,29,9,29,0.00
2013-11-19,39.9,33.3,27.0,16.9,11.7,6.4,42,40,39,29.06,28.79,15,2,15,0.00
2013-11-20,44.2,34.8,25.5,20.0,13.0,5.6,42,40,38,29.06,28.85,17,3,17,0.00
2013-11-21,46.8,42.7,38.7,22.5,19.0,15.8,40,38,37,28.94,28.82,11,3,11,0.00
2013-11-22,43.7,37.6,28.0,18.6,1.2,-14.6,41,25,9,29.00,28.79,15,3,15,0.00
2013-11-23,28.0,23.5,17.4,7.3,3.8,-1.0,44,42,41,29.12,28.88,23,5,23,0.00
2013-11-24,23.5,19.3,15.3,3.8,0.5,-2.8,44,43,42,29.18,29.00,16,4,16,0.00
2013-11-25,30.6,25.4,19.4,9.5,5.4,0.5,43,42,41,29.00,28.70,17,6,17,0.00
2013-11-26,32.0,30.2,27.0,10.9,9.3,6.9,42,41,41,28.70,28.56,12,3,12,0.00
2013-11-27,27.0,22.4,19.0,6.9,3.0,0.2,44,43,42,28.82,28.56,17,5,17,0.00
2013-11-28,27.5,22.7,15.8,7.4,3.3,-2.3,44,43,41,29.06,28.82,8,1,8,0.00
2013-11-29,32.5,24.6,16.9,11.4,4.8,-1.3,44,42,41,29.26,29.06,8,1,8,0.00
2013-11-30,41.2,33.3,26.4,18.1,11.8,6.4,42,41,39,29.15,28.70,12,4,12,0.00
2013-12-1,38.8,34.6,31.8,16.5,13.0,10.8,41,41,40,28.70,28.61,9,2,9,0.00
2013-12-2,37.4,31.5,24.8,15.1,10.3,4.9,42,41,39,28.61,28.53,10,1,10,0.00
2013-12-3,36.7,32.8,24.4,14.0,6.9,-13.9,42,36,11,28.56,28.47,12,4,12,0.00
2013-12-4,54.1,44.6,36.7,-7.9,-11.3,-14.4,11,9,7,28.56,28.26,15,3,15,0.00
2013-12-5,54.3,39.3,29.5,17.1,6.3,-12.1,41,31,7,28.76,28.26,22,7,22,0.00
2013-12-6,29.5,24.9,20.1,8.5,5.1,1.2,43,42,41,29.03,28.76,13,4,13,0.00
2013-12-7,24.8,19.9,12.9,4.9,1.0,-4.5,45,43,42,29.20,29.03,15,3,15,0.00
2013-12-8,28.2,20.2,12.7,7.9,1.2,-4.6,45,43,42,29.18,28.58,16,3,16,0.00
2013-12-9,28.8,25.2,17.4,8.2,5.4,-1.0,44,42,41,28.70,28.50,21,6,21,0.00
2013-12-10,21.2,17.9,11.1,2.2,-0.6,-6.1,45,44,43,28.79,28.56,23,6,23,0.00
2013-12-11,21.6,16.7,7.5,2.5,-1.6,-9.4,45,44,43,29.03,28.79,13,4,13,0.00
2013-12-12,20.7,13.8,3.0,1.7,-4.0,-13.6,45,44,43,29.03,28.73,19,4,19,0.00
2013-12-13,26.2,23.2,19.6,6.2,3.8,0.7,43,43,42,28.91,28.73,17,3,17,0.00
2013-12-14,21.4,19.2,17.1,2.3,0.6,-1.1,44,43,43,28.88,28.44,16,5,16,0.00
2013-12-15,23.5,18.3,9.3,4.3,-0.3,-7.8,45,44,42,28.64,28.44,19,4,26,0.00
2013-12-16,22.1,14.4,6.3,3.0,-3.5,-10.6,45,44,43,28.79,28.61,10,1,10,0.00
2013-12-17,27.0,22.7,15.3,6.9,3.4,-2.8,44,43,42,28.61,28.50,17,3,17,0.00
2013-12-18,27.7,25.5,21.2,7.5,5.7,2.2,43,42,41,28.73,28.50,16,4,16,0.00
2013-12-19,36.7,31.6,25.0,14.6,10.6,5.1,42,41,40,28.61,28.47,11,2,11,0.00
2013-12-20,34.9,33.2,32.5,13.0,12.0,11.4,42,41,40,28.53,28.38,8,1,8,0.00
2013-12-21,32.7,32.3,31.8,18.0,14.5,11.2,55,48,41,28.50,28.29,8,0,8,0.00
2013-12-22,32.9,31.8,29.5,20.1,17.8,14.0,59,56,52,28.61,28.23,0,0,0,0.00
2013-12-23,29.8,26.0,18.9,14.8,-12.9,-22.0,53,20,12,28.91,28.61,0,0,0,0.00
2013-12-24,18.7,13.4,7.2,-0.6,-4.4,-9.8,45,44,37,29.12,28.88,0,0,0,0.00
2013-12-25,23.7,19.1,10.2,4.5,0.5,-6.9,45,44,42,29.09,28.70,0,0,0,0.00
2013-12-26,25.7,24.1,21.7,5.7,4.6,2.6,43,43,42,28.88,28.64,0,0,0,0.00
2013-12-27,34.9,30.8,25.7,13.0,9.6,5.6,42,41,37,28.91,28.67,14,2,14,0.00
2013-12-28,41.0,36.1,32.4,17.9,14.2,11.2,41,40,39,28.73,28.50,16,5,16,0.00
2013-12-29,37.0,31.0,19.6,14.9,10.1,0.7,43,41,40,28.64,28.35,13,4,13,0.00
2013-12-30,20.5,18.7,15.8,1.5,-0.0,-2.3,44,43,43,28.88,28.64,12,2,12,0.00
2013-12-31,18.5,16.2,13.3,0.0,-1.9,-4.1,45,44,43,28.94,28.64,17,6,17,0.00
2014-1-1,15.4,13.6,11.3,-2.6,-4.0,-6.0,45,45,44,29.00,28.85,11,3,11,0.00
2014-1-2,14.9,10.9,3.0,-3.1,-6.4,-13.6,45,45,44,28.91,28.70,20,6,20,0.00